Terminal Aerodrome Forecast
Issued by NWS

Home | Current Version | Previous Version | Graphics & Text | Print | Product List | Glossary On
Versions: 1 2 3 4 5 6 7 8 9 10 11 12
569
FTUS42 KMHX 171123
TAFOAJ
TAF
KOAJ 171123Z 1712/1812 01009KT P6SM SCT250
     FM171500 01010G18KT P6SM FEW250
     FM172200 01004KT P6SM SKC
      AMD LTD TO CLD VIS AND WIND=

USA.gov is the U.S. government's official web portal to all federal, state and local government web resources and services.